Showing default

QIANFAN-28, 61561

Orbit data source: Space-Track

QIANFAN-28, 61561 is a Chinese payload satellite in LEO that was launched on Tue, 15 Oct 2024 UTC via a CHANG ZHENG 6A launch vehicle from the Taiyaun Space Center, China (TSC). Payload-class satellites include a variety of spacecraft equipped with specific instruments for various scientific and technological missions. These include communications satellites like Starlink; space stations such as the ISS; scientific satellites like the Hubble; Earth observation satellites from companies like Planet Labs, Umbra, and HawkEye 360; GPS; miniature CubeSats for education and research; and military/defense satellites.

Loading next visibility...
Identifier
61561, 2024-185K
Orbit
LEO
Country
Flag of CNCN / PRC
Related business
Manufacturer
GESIH/SECM
Mission
Partially operational Commercial Communications
Bus & Motor
QIANFAN, Unknown motor
Mass
267 kg wet, ~267 kg dry
Launch date (UTC)
2024-10-15 (1 year ago)
Launch vehicle
CHANG ZHENG 6A
Launch site
Taiyaun Space Center, China (TSC)
Object type
Payload
Rocket body
Debris
Shape & HBR
Box + 1 Pan, 5.0 m
Radar Cross Section
13.200 m², Large (>1 m²)

Expand to show TLE details & history
Last TLE update: 4 hours ago

TLE from 4 hours ago
0 QIANFAN-28
1 61561U 24185K   26037.50488269  .00001008  00000-0  39946-3 0  9992
2 61561  88.9768  70.4073 0009566 103.0459 257.1804 14.28163562 78130
Epoch: 2026-02-06T12:07Z
TLE epoch observation values (Epoch: 2026-02-06T12:07:01.864Z)
Latitude
-0.00002°
Longitude
112.00773°
Altitude
802.47 km
Speed
7.451 km/s
True Right ascension
04h 41m 37s
True Declination
0° 00' 00"
Sunlit
Object was in daylight at epoch
Visualization orbit readout
Latitude
Unknown
Longitude
Unknown
Altitude
Unknown
Speed
Unknown
Apparent Right ascension
Unknown
Apparent Declination
Unknown
Sunlit
N/A
Visualization observer readout
Local Sidereal Time
18:35:01
Azimuth
Unknown
Elevation
Unknown
Doppler factor
Unknown
Orbital elements
Apogee altitude
801.677 km
Perigee altitude
787.954 km
Semi-major axis
7,172.953 km
Eccentricity
0.00096
Inclination
88.9768°
RAAN
70.4073°
Arg. of periapsis
103.0459°
True anomaly
257.07354°
Mean anomaly
257.1804°
Eccentric anomaly
257.12697°
Mean motion
3.5727 °/min
Orbital period
100.76 mins
BSTAR
0.00039946
Loading maneuver chart data...
Computing Atmospheric mass density...
Loading historical data...
Loading historical data...
Loading historical data...
Loading historical data...
Loading historical data...
Loading historical data...
Loading historical data...

Documentation

Showing up to 5 results
|